GLO8001 SBPV-SBBV

Flight info

Callsign GLO8001
Flight time 1h 54m
Altitude 37000
Route MUPEG UZ74 MNS UM402 ANBIX
Aircraft B738/M-V/N

Departure

Time 2026-04-26 19:45
Airport Governador Jorge Teixeira de Oliveira International Airport (SBPV)

Arrival

Time 2026-04-26 21:40
Airport Atlas Brasil Cantanhede International Airport (SBBV)
Time Latitude Longitude Altitude Speed Heading
2026-04-26 19:40 -8.71424 -63.90149 298 ft 0 kts 265°
2026-04-26 19:40 -8.71425 -63.90152 298 ft 3 kts 264°
2026-04-26 19:41 -8.71458 -63.90182 298 ft 11 kts 200°
2026-04-26 19:41 -8.71550 -63.90192 297 ft 15 kts 180°
2026-04-26 19:41 -8.71665 -63.90186 296 ft 17 kts 175°
2026-04-26 19:41 -8.71746 -63.90180 301 ft 17 kts 176°
2026-04-26 19:42 -8.71900 -63.90180 298 ft 16 kts 178°
2026-04-26 19:42 -8.71982 -63.90176 299 ft 6 kts 144°
2026-04-26 19:42 -8.71975 -63.90168 302 ft 1 kts 352°
2026-04-26 19:42 -8.71971 -63.90168 302 ft 1 kts 352°
2026-04-26 19:43 -8.71967 -63.90169 301 ft 0 kts 353°
2026-04-26 19:44 -8.71965 -63.90169 301 ft 1 kts 353°
2026-04-26 19:44 -8.71924 -63.90173 300 ft 30 kts 355°
2026-04-26 19:44 -8.71427 -63.90205 298 ft 110 kts 356°
2026-04-26 19:45 -8.70446 -63.90268 426 ft 160 kts 355°
2026-04-26 19:45 -8.69212 -63.90361 800 ft 202 kts 355°
2026-04-26 19:45 -8.67734 -63.90530 1302 ft 220 kts 354°
2026-04-26 19:45 -8.66179 -63.90293 1790 ft 243 kts 28°
2026-04-26 19:46 -8.65013 -63.89035 2259 ft 259 kts 65°
2026-04-26 19:46 -8.64798 -63.87242 2730 ft 262 kts 98°
2026-04-26 19:46 -8.64917 -63.85423 3282 ft 261 kts 76°
2026-04-26 19:46 -8.64002 -63.83870 3921 ft 263 kts 38°
2026-04-26 19:47 -8.62421 -63.82964 4777 ft 263 kts 26°
2026-04-26 19:47 -8.61329 -63.82423 5318 ft 263 kts 27°
2026-04-26 19:47 -8.59127 -63.81266 6315 ft 270 kts 29°
2026-04-26 19:47 -8.57479 -63.80330 7018 ft 273 kts 30°
2026-04-26 19:48 -8.55838 -63.79349 7727 ft 276 kts 32°
2026-04-26 19:48 -8.54187 -63.78326 8423 ft 280 kts 32°
2026-04-26 19:48 -8.52532 -63.77274 9153 ft 283 kts 33°
2026-04-26 19:48 -8.50861 -63.76194 9873 ft 287 kts 33°
2026-04-26 19:49 -8.49156 -63.75080 10312 ft 301 kts 34°
2026-04-26 19:49 -8.47330 -63.73877 10465 ft 324 kts 34°
2026-04-26 19:49 -8.45391 -63.72594 10696 ft 341 kts 34°
2026-04-26 19:49 -8.43385 -63.71265 11190 ft 347 kts 34°
2026-04-26 19:50 -8.41352 -63.69915 11806 ft 350 kts 34°
2026-04-26 19:50 -8.39336 -63.68576 12414 ft 353 kts 34°
2026-04-26 19:50 -8.37271 -63.67204 12997 ft 357 kts 34°
2026-04-26 19:50 -8.35186 -63.65818 13574 ft 360 kts 34°
2026-04-26 19:51 -8.33084 -63.64420 14092 ft 364 kts 34°
2026-04-26 19:51 -8.30959 -63.63008 14606 ft 367 kts 34°
2026-04-26 19:51 -8.28818 -63.61585 15110 ft 370 kts 34°
2026-04-26 19:51 -8.26659 -63.60151 15607 ft 373 kts 34°
2026-04-26 19:52 -8.24482 -63.58699 16111 ft 376 kts 34°
2026-04-26 19:52 -8.22292 -63.57228 16586 ft 380 kts 34°
2026-04-26 19:52 -8.20087 -63.55743 17090 ft 383 kts 34°
2026-04-26 19:52 -8.17859 -63.54241 17577 ft 386 kts 35°
2026-04-26 19:53 -8.15614 -63.52729 18087 ft 390 kts 34°
2026-04-26 19:53 -8.13362 -63.51245 18503 ft 393 kts 33°
2026-04-26 19:53 -8.10965 -63.49816 18870 ft 397 kts 29°
2026-04-26 19:53 -8.08545 -63.48514 19195 ft 401 kts 32°
2026-04-26 19:54 -8.06234 -63.46913 19591 ft 402 kts 37°
2026-04-26 19:54 -8.04002 -63.45223 20091 ft 401 kts 38°
2026-04-26 19:54 -8.01769 -63.43528 20532 ft 401 kts 38°
2026-04-26 19:54 -7.99493 -63.41878 20863 ft 405 kts 36°
2026-04-26 19:55 -7.97145 -63.40274 21168 ft 409 kts 34°
2026-04-26 19:55 -7.94765 -63.38683 21526 ft 411 kts 34°
2026-04-26 19:55 -7.92369 -63.37088 21925 ft 413 kts 34°
2026-04-26 19:55 -7.89966 -63.35482 22300 ft 416 kts 34°
2026-04-26 19:56 -7.87550 -63.33861 22662 ft 418 kts 34°
2026-04-26 19:56 -7.85126 -63.32233 23012 ft 421 kts 34°
2026-04-26 19:56 -7.82678 -63.30588 23359 ft 423 kts 34°
2026-04-26 19:56 -7.80248 -63.28957 23661 ft 425 kts 34°
2026-04-26 19:57 -7.77787 -63.27304 23980 ft 425 kts 34°
2026-04-26 19:57 -7.75321 -63.25649 24255 ft 426 kts 34°
2026-04-26 19:57 -7.72856 -63.23994 24478 ft 427 kts 34°
2026-04-26 19:57 -7.70373 -63.22327 24702 ft 429 kts 34°
2026-04-26 19:58 -7.67881 -63.20654 24937 ft 430 kts 34°
2026-04-26 19:58 -7.65388 -63.18980 25171 ft 431 kts 34°
2026-04-26 19:58 -7.62887 -63.17302 25418 ft 432 kts 34°
2026-04-26 19:58 -7.60383 -63.15622 25648 ft 433 kts 34°
2026-04-26 19:59 -7.57905 -63.13959 25864 ft 434 kts 34°
2026-04-26 19:59 -7.55391 -63.12273 26085 ft 435 kts 34°
2026-04-26 19:59 -7.52866 -63.10579 26304 ft 436 kts 34°
2026-04-26 19:59 -7.50336 -63.08884 26525 ft 437 kts 34°
2026-04-26 20:00 -7.47796 -63.07186 26739 ft 438 kts 34°
2026-04-26 20:00 -7.45250 -63.05487 26949 ft 439 kts 34°
2026-04-26 20:00 -7.42696 -63.03783 27143 ft 440 kts 34°
2026-04-26 20:00 -7.40125 -63.02068 27353 ft 442 kts 34°
2026-04-26 20:01 -7.37560 -63.00356 27545 ft 443 kts 34°
2026-04-26 20:01 -7.34988 -62.98640 27733 ft 444 kts 34°
2026-04-26 20:01 -7.32411 -62.96920 27927 ft 445 kts 34°
2026-04-26 20:01 -7.29826 -62.95195 28123 ft 446 kts 34°
2026-04-26 20:02 -7.27271 -62.93490 28305 ft 447 kts 34°
2026-04-26 20:02 -7.24676 -62.91759 28483 ft 448 kts 34°
2026-04-26 20:02 -7.22071 -62.90020 28661 ft 449 kts 34°
2026-04-26 20:02 -7.20341 -62.88866 28777 ft 450 kts 34°
2026-04-26 20:03 -7.16846 -62.86535 29005 ft 451 kts 34°
2026-04-26 20:03 -7.14222 -62.84786 29172 ft 452 kts 34°
2026-04-26 20:03 -7.11591 -62.83031 29341 ft 453 kts 34°
2026-04-26 20:03 -7.08957 -62.81275 29500 ft 454 kts 34°
2026-04-26 20:04 -7.06321 -62.79518 29644 ft 455 kts 34°
2026-04-26 20:04 -7.03678 -62.77756 29795 ft 456 kts 34°
2026-04-26 20:04 -7.01024 -62.75988 29939 ft 457 kts 34°
2026-04-26 20:04 -6.98403 -62.74240 30068 ft 458 kts 34°
2026-04-26 20:05 -6.95742 -62.72468 30182 ft 459 kts 34°
2026-04-26 20:05 -6.93048 -62.70672 30346 ft 459 kts 35°
2026-04-26 20:05 -6.90428 -62.68918 30536 ft 458 kts 35°
2026-04-26 20:05 -6.87783 -62.67143 30720 ft 457 kts 35°
2026-04-26 20:06 -6.85137 -62.65364 30883 ft 457 kts 35°
2026-04-26 20:06 -6.82494 -62.63589 31049 ft 457 kts 35°
2026-04-26 20:06 -6.79852 -62.61814 31234 ft 456 kts 35°
2026-04-26 20:06 -6.77201 -62.60035 31403 ft 456 kts 35°
2026-04-26 20:07 -6.74554 -62.58259 31566 ft 456 kts 35°
2026-04-26 20:07 -6.71918 -62.56490 31780 ft 455 kts 35°
2026-04-26 20:07 -6.69287 -62.54726 31986 ft 454 kts 35°
2026-04-26 20:07 -6.66663 -62.52966 32152 ft 454 kts 35°
2026-04-26 20:08 -6.64029 -62.51200 32307 ft 454 kts 36°
2026-04-26 20:08 -6.61405 -62.49440 32502 ft 454 kts 36°
2026-04-26 20:08 -6.58777 -62.47678 32698 ft 453 kts 36°
2026-04-26 20:08 -6.56160 -62.45923 32880 ft 452 kts 36°
2026-04-26 20:09 -6.53566 -62.44185 33048 ft 452 kts 36°
2026-04-26 20:09 -6.50942 -62.42428 33225 ft 452 kts 36°
2026-04-26 20:09 -6.48320 -62.40687 33418 ft 452 kts 36°
2026-04-26 20:09 -6.45689 -62.38947 33605 ft 451 kts 36°
2026-04-26 20:10 -6.43062 -62.37213 33789 ft 451 kts 36°
2026-04-26 20:10 -6.40439 -62.35482 33945 ft 451 kts 36°
2026-04-26 20:10 -6.37816 -62.33749 34076 ft 451 kts 36°
2026-04-26 20:10 -6.35188 -62.32012 34190 ft 452 kts 36°
2026-04-26 20:11 -6.32564 -62.30277 34340 ft 452 kts 36°
2026-04-26 20:11 -6.29942 -62.28543 34513 ft 451 kts 36°
2026-04-26 20:11 -6.27320 -62.26808 34658 ft 451 kts 36°
2026-04-26 20:12 -6.22098 -62.23355 34945 ft 451 kts 36°
2026-04-26 20:12 -6.19477 -62.21622 35126 ft 451 kts 35°
2026-04-26 20:12 -6.16860 -62.19892 35292 ft 450 kts 35°
2026-04-26 20:12 -6.14242 -62.18161 35431 ft 450 kts 35°
2026-04-26 20:13 -6.11623 -62.16430 35562 ft 451 kts 35°
2026-04-26 20:13 -6.09006 -62.14701 35721 ft 450 kts 35°
2026-04-26 20:13 -6.06390 -62.12972 35874 ft 450 kts 35°
2026-04-26 20:13 -6.03776 -62.11245 36034 ft 449 kts 35°
2026-04-26 20:14 -6.01168 -62.09522 36250 ft 447 kts 35°
2026-04-26 20:14 -5.98569 -62.07806 36416 ft 447 kts 35°
2026-04-26 20:14 -5.95975 -62.06092 36529 ft 447 kts 35°
2026-04-26 20:15 -5.90803 -62.02676 36801 ft 447 kts 35°
2026-04-26 20:15 -5.86442 -61.99797 36846 ft 449 kts 35°
2026-04-26 20:16 -5.81223 -61.96352 36852 ft 447 kts 35°
2026-04-26 20:16 -5.76062 -61.92946 36863 ft 445 kts 35°
2026-04-26 20:17 -5.70890 -61.89533 36851 ft 443 kts 35°
2026-04-26 20:17 -5.65748 -61.86140 36851 ft 441 kts 35°
2026-04-26 20:18 -5.60624 -61.82760 36855 ft 440 kts 35°
2026-04-26 20:18 -5.55537 -61.79346 36864 ft 439 kts 36°
2026-04-26 20:19 -5.50481 -61.75905 36856 ft 439 kts 36°
2026-04-26 20:19 -5.45449 -61.72484 36865 ft 440 kts 36°
2026-04-26 20:20 -5.40370 -61.69040 36865 ft 441 kts 36°
2026-04-26 20:20 -5.35271 -61.65585 36856 ft 442 kts 36°
2026-04-26 20:21 -5.30160 -61.62123 36860 ft 444 kts 36°
2026-04-26 20:21 -5.25035 -61.58652 36858 ft 445 kts 36°
2026-04-26 20:22 -5.19887 -61.55166 36851 ft 446 kts 36°
2026-04-26 20:22 -5.14742 -61.51683 36850 ft 447 kts 36°
2026-04-26 20:23 -5.09557 -61.48234 36844 ft 447 kts 34°
2026-04-26 20:23 -5.04318 -61.44841 36849 ft 447 kts 34°
2026-04-26 20:24 -4.99092 -61.41454 36860 ft 447 kts 34°
2026-04-26 20:24 -4.93910 -61.38082 36846 ft 446 kts 34°
2026-04-26 20:25 -4.88701 -61.34689 36859 ft 445 kts 34°
2026-04-26 20:25 -4.83504 -61.31304 36855 ft 444 kts 35°
2026-04-26 20:26 -4.78326 -61.27933 36854 ft 443 kts 35°
2026-04-26 20:26 -4.73208 -61.24568 36862 ft 442 kts 35°
2026-04-26 20:27 -4.68081 -61.21163 36852 ft 442 kts 35°
2026-04-26 20:27 -4.62952 -61.17757 36857 ft 441 kts 35°
2026-04-26 20:28 -4.57837 -61.14366 36865 ft 441 kts 35°
2026-04-26 20:28 -4.52709 -61.10968 36853 ft 441 kts 35°
2026-04-26 20:29 -4.47584 -61.07574 36858 ft 441 kts 35°
2026-04-26 20:29 -4.42459 -61.04180 36868 ft 442 kts 35°
2026-04-26 20:30 -4.37361 -61.00805 36855 ft 442 kts 35°
2026-04-26 20:30 -4.32228 -60.97407 36869 ft 443 kts 36°
2026-04-26 20:31 -4.27086 -60.94004 36861 ft 443 kts 36°
2026-04-26 20:31 -4.21939 -60.90598 36869 ft 443 kts 36°
2026-04-26 20:32 -4.16792 -60.87193 36868 ft 444 kts 36°
2026-04-26 20:32 -4.11635 -60.83781 36859 ft 444 kts 36°
2026-04-26 20:33 -4.06476 -60.80368 36874 ft 444 kts 36°
2026-04-26 20:33 -4.01355 -60.76981 36864 ft 444 kts 36°
2026-04-26 20:34 -3.96204 -60.73575 36854 ft 444 kts 36°
2026-04-26 20:34 -3.91044 -60.70163 36871 ft 443 kts 36°
2026-04-26 20:35 -3.85895 -60.66760 36872 ft 443 kts 36°
2026-04-26 20:35 -3.80746 -60.63356 36860 ft 443 kts 36°
2026-04-26 20:36 -3.75591 -60.59949 36872 ft 443 kts 36°
2026-04-26 20:36 -3.70442 -60.56546 36871 ft 443 kts 36°
2026-04-26 20:37 -3.65324 -60.53164 36860 ft 443 kts 35°
2026-04-26 20:37 -3.60249 -60.49603 36873 ft 442 kts 39°
2026-04-26 20:38 -3.55368 -60.45929 36870 ft 442 kts 39°
2026-04-26 20:38 -3.50434 -60.42238 36861 ft 442 kts 39°
2026-04-26 20:39 -3.45484 -60.38575 36864 ft 442 kts 38°
2026-04-26 20:39 -3.40531 -60.34922 36871 ft 442 kts 38°
2026-04-26 20:40 -3.35569 -60.31261 36860 ft 442 kts 38°
2026-04-26 20:40 -3.30643 -60.27627 36873 ft 442 kts 39°
2026-04-26 20:41 -3.25766 -60.23875 36869 ft 441 kts 42°
2026-04-26 20:41 -3.21092 -60.19899 36873 ft 440 kts 43°
2026-04-26 20:42 -3.16424 -60.15920 36873 ft 440 kts 42°
2026-04-26 20:42 -3.11737 -60.11973 36877 ft 440 kts 42°
2026-04-26 20:43 -3.07053 -60.08079 36876 ft 441 kts 37°
2026-04-26 20:43 -3.04341 -60.06633 36891 ft 445 kts 21°
2026-04-26 20:43 -3.01320 -60.05910 36869 ft 450 kts
2026-04-26 20:43 -2.98180 -60.05948 36902 ft 453 kts 356°
2026-04-26 20:44 -2.95043 -60.06307 36888 ft 455 kts 356°
2026-04-26 20:44 -2.88747 -60.07083 36879 ft 456 kts 356°
2026-04-26 20:45 -2.82429 -60.07820 36882 ft 457 kts 356°
2026-04-26 20:45 -2.76081 -60.08520 36872 ft 459 kts 356°
2026-04-26 20:46 -2.69756 -60.09205 36870 ft 460 kts 356°
2026-04-26 20:46 -2.63376 -60.09898 36876 ft 461 kts 356°
2026-04-26 20:47 -2.56995 -60.10593 36863 ft 461 kts 356°
2026-04-26 20:47 -2.50616 -60.11288 36867 ft 461 kts 356°
2026-04-26 20:48 -2.44230 -60.11983 36861 ft 461 kts 356°
2026-04-26 20:48 -2.37858 -60.12677 36868 ft 460 kts 356°
2026-04-26 20:49 -2.31503 -60.13373 36868 ft 459 kts 356°
2026-04-26 20:49 -2.25196 -60.14066 36864 ft 458 kts 356°
2026-04-26 20:50 -2.18863 -60.14761 36865 ft 457 kts 356°
2026-04-26 20:50 -2.12548 -60.15454 36867 ft 456 kts 356°
2026-04-26 20:51 -2.06245 -60.16146 36866 ft 455 kts 356°
2026-04-26 20:51 -1.99995 -60.16831 36870 ft 454 kts 356°
2026-04-26 20:52 -1.93718 -60.17517 36861 ft 453 kts 356°
2026-04-26 20:52 -1.87442 -60.18204 36866 ft 453 kts 356°
2026-04-26 20:53 -1.81167 -60.18891 36868 ft 453 kts 356°
2026-04-26 20:53 -1.74886 -60.19576 36863 ft 454 kts 356°
2026-04-26 20:54 -1.68592 -60.20262 36874 ft 455 kts 356°
2026-04-26 20:54 -1.62331 -60.20944 36871 ft 455 kts 356°
2026-04-26 20:55 -1.56028 -60.21631 36848 ft 456 kts 356°
2026-04-26 20:55 -1.49710 -60.22320 36858 ft 456 kts 356°
2026-04-26 20:56 -1.43403 -60.23007 36853 ft 456 kts 356°
2026-04-26 20:56 -1.37090 -60.23696 36863 ft 456 kts 356°
2026-04-26 20:57 -1.30776 -60.24384 36856 ft 456 kts 355°
2026-04-26 20:57 -1.24455 -60.25073 36872 ft 456 kts 355°
2026-04-26 20:58 -1.18174 -60.25758 36861 ft 457 kts 355°
2026-04-26 20:58 -1.11853 -60.26447 36863 ft 457 kts 355°
2026-04-26 20:59 -1.05530 -60.27135 36864 ft 457 kts 355°
2026-04-26 20:59 -0.99234 -60.27821 36862 ft 457 kts 356°
2026-04-26 21:00 -0.92909 -60.28510 36861 ft 457 kts 356°
2026-04-26 21:00 -0.86583 -60.29199 36866 ft 457 kts 356°
2026-04-26 21:01 -0.80249 -60.29890 36862 ft 458 kts 355°
2026-04-26 21:01 -0.74980 -60.30464 36859 ft 458 kts 355°
2026-04-26 21:02 -0.68628 -60.31156 36859 ft 459 kts 355°
2026-04-26 21:02 -0.62268 -60.31849 36853 ft 459 kts 355°
2026-04-26 21:03 -0.55905 -60.32542 36856 ft 460 kts 355°
2026-04-26 21:03 -0.49578 -60.33232 36859 ft 460 kts 355°
2026-04-26 21:04 -0.43206 -60.33926 36852 ft 460 kts 355°
2026-04-26 21:04 -0.36841 -60.34620 36857 ft 460 kts 355°
2026-04-26 21:05 -0.30472 -60.35315 36856 ft 460 kts 355°
2026-04-26 21:05 -0.24107 -60.36010 36862 ft 460 kts 355°
2026-04-26 21:06 -0.17739 -60.36706 36861 ft 460 kts 355°
2026-04-26 21:06 -0.11415 -60.37396 36854 ft 460 kts 355°
2026-04-26 21:07 -0.05057 -60.38090 36856 ft 459 kts 355°
2026-04-26 21:07 0.01298 -60.38784 36858 ft 459 kts 355°
2026-04-26 21:08 0.07665 -60.39479 36855 ft 459 kts 355°
2026-04-26 21:08 0.13976 -60.40168 36865 ft 458 kts 355°
2026-04-26 21:09 0.20301 -60.40859 36867 ft 457 kts 355°
2026-04-26 21:09 0.26631 -60.41550 36858 ft 457 kts 355°
2026-04-26 21:10 0.32953 -60.42240 36863 ft 456 kts 355°
2026-04-26 21:10 0.39255 -60.42928 36866 ft 455 kts 355°
2026-04-26 21:11 0.45561 -60.43616 36861 ft 455 kts 355°
2026-04-26 21:11 0.51830 -60.44301 36814 ft 456 kts 355°
2026-04-26 21:11 0.55012 -60.44648 36289 ft 463 kts 355°
2026-04-26 21:12 0.58202 -60.44996 35790 ft 460 kts 355°
2026-04-26 21:12 0.60310 -60.45227 35454 ft 460 kts 355°
2026-04-26 21:12 0.67743 -60.46037 34387 ft 455 kts 356°
2026-04-26 21:13 0.70804 -60.46368 33956 ft 453 kts 356°
2026-04-26 21:13 0.73930 -60.46705 33462 ft 451 kts 356°
2026-04-26 21:13 0.77055 -60.47041 32958 ft 450 kts 356°
2026-04-26 21:13 0.80162 -60.47376 32468 ft 448 kts 356°
2026-04-26 21:14 0.83258 -60.47710 31987 ft 447 kts 356°
2026-04-26 21:14 0.86345 -60.48043 31511 ft 445 kts 356°
2026-04-26 21:14 0.89424 -60.48375 31042 ft 444 kts 356°
2026-04-26 21:14 0.92493 -60.48706 30585 ft 443 kts 356°
2026-04-26 21:15 0.95553 -60.49036 30134 ft 442 kts 357°
2026-04-26 21:15 0.98565 -60.49361 29647 ft 440 kts 357°
2026-04-26 21:15 1.01610 -60.49690 29122 ft 439 kts 356°
2026-04-26 21:15 1.04640 -60.50017 28606 ft 437 kts 356°
2026-04-26 21:16 1.07659 -60.50343 28098 ft 435 kts 356°
2026-04-26 21:16 1.10664 -60.50668 27611 ft 433 kts 356°
2026-04-26 21:16 1.13656 -60.50991 27120 ft 432 kts 356°
2026-04-26 21:16 1.16635 -60.51312 26639 ft 430 kts 356°
2026-04-26 21:17 1.19607 -60.51633 26154 ft 428 kts 356°
2026-04-26 21:17 1.22564 -60.51952 25708 ft 427 kts 356°
2026-04-26 21:17 1.25513 -60.52271 25249 ft 425 kts 356°
2026-04-26 21:17 1.28455 -60.52588 24797 ft 423 kts 356°
2026-04-26 21:18 1.31374 -60.52903 24357 ft 422 kts 356°
2026-04-26 21:18 1.34295 -60.53219 23923 ft 420 kts 356°
2026-04-26 21:18 1.37196 -60.53532 23492 ft 419 kts 356°
2026-04-26 21:18 1.40091 -60.53844 22991 ft 417 kts 356°
2026-04-26 21:19 1.42971 -60.54155 22480 ft 416 kts 356°
2026-04-26 21:19 1.45805 -60.54461 21989 ft 414 kts 355°
2026-04-26 21:19 1.48665 -60.54770 21498 ft 412 kts 355°
2026-04-26 21:19 1.51513 -60.55078 21015 ft 411 kts 355°
2026-04-26 21:20 1.54351 -60.55384 20537 ft 409 kts 355°
2026-04-26 21:20 1.57176 -60.55689 20068 ft 407 kts 355°
2026-04-26 21:20 1.59986 -60.55992 19610 ft 405 kts 355°
2026-04-26 21:20 1.62787 -60.56295 19150 ft 404 kts 355°
2026-04-26 21:21 1.65572 -60.56596 18717 ft 402 kts 354°
2026-04-26 21:21 1.68353 -60.56896 18263 ft 400 kts 355°
2026-04-26 21:21 1.71113 -60.57194 17771 ft 398 kts 355°
2026-04-26 21:21 1.73871 -60.57492 17268 ft 397 kts 355°
2026-04-26 21:22 1.76616 -60.57789 16768 ft 395 kts 355°
2026-04-26 21:22 1.79307 -60.58079 16350 ft 392 kts 355°
2026-04-26 21:22 1.81985 -60.58367 16121 ft 383 kts 354°
2026-04-26 21:23 1.87189 -60.58931 15632 ft 369 kts 355°
2026-04-26 21:23 1.89716 -60.59205 15391 ft 363 kts 354°
2026-04-26 21:23 1.92208 -60.59474 15148 ft 357 kts 355°
2026-04-26 21:23 1.94658 -60.59739 14915 ft 351 kts 354°
2026-04-26 21:24 1.97073 -60.59999 14681 ft 346 kts 354°
2026-04-26 21:24 1.99454 -60.60257 14447 ft 342 kts 354°
2026-04-26 21:24 2.01807 -60.60511 14216 ft 337 kts 355°
2026-04-26 21:24 2.04125 -60.60762 13988 ft 333 kts 354°
2026-04-26 21:25 2.06425 -60.61010 13763 ft 329 kts 354°
2026-04-26 21:25 2.08689 -60.61255 13516 ft 326 kts 354°
2026-04-26 21:25 2.10934 -60.61497 13258 ft 323 kts 354°
2026-04-26 21:25 2.13157 -60.61737 13012 ft 319 kts 354°
2026-04-26 21:26 2.15358 -60.61975 12758 ft 316 kts 354°
2026-04-26 21:26 2.17513 -60.62218 12512 ft 313 kts 351°
2026-04-26 21:26 2.19571 -60.62884 12243 ft 312 kts 332°
2026-04-26 21:26 2.21444 -60.63954 12019 ft 308 kts 330°
2026-04-26 21:27 2.23280 -60.65050 11781 ft 306 kts 329°
2026-04-26 21:27 2.25098 -60.66143 11533 ft 304 kts 329°
2026-04-26 21:27 2.26904 -60.67226 11296 ft 302 kts 329°
2026-04-26 21:27 2.28705 -60.68301 11059 ft 300 kts 329°
2026-04-26 21:28 2.30492 -60.69363 10821 ft 298 kts 329°
2026-04-26 21:28 2.32266 -60.70415 10591 ft 296 kts 329°
2026-04-26 21:28 2.34031 -60.71460 10356 ft 294 kts 330°
2026-04-26 21:28 2.35785 -60.72497 10127 ft 292 kts 330°
2026-04-26 21:29 2.37532 -60.73529 9899 ft 291 kts 330°
2026-04-26 21:29 2.39271 -60.74556 9661 ft 289 kts 330°
2026-04-26 21:29 2.40997 -60.75575 9411 ft 287 kts 329°
2026-04-26 21:29 2.42693 -60.76576 9161 ft 286 kts 330°
2026-04-26 21:30 2.44422 -60.77597 8895 ft 284 kts 330°
2026-04-26 21:30 2.46101 -60.78588 8669 ft 283 kts 330°
2026-04-26 21:30 2.47795 -60.79588 8415 ft 282 kts 330°
2026-04-26 21:30 2.49480 -60.80583 8173 ft 280 kts 330°
2026-04-26 21:31 2.51157 -60.81572 7936 ft 279 kts 330°
2026-04-26 21:31 2.52830 -60.82560 7700 ft 278 kts 330°
2026-04-26 21:31 2.54498 -60.83544 7455 ft 278 kts 330°
2026-04-26 21:31 2.56155 -60.84523 7261 ft 275 kts 330°
2026-04-26 21:32 2.57797 -60.85493 7069 ft 272 kts 330°
2026-04-26 21:32 2.59421 -60.86451 6873 ft 270 kts 330°
2026-04-26 21:32 2.61026 -60.87399 6719 ft 264 kts 330°
2026-04-26 21:32 2.62583 -60.88319 6538 ft 256 kts 330°
2026-04-26 21:33 2.64075 -60.89200 6344 ft 249 kts 330°
2026-04-26 21:33 2.65547 -60.90069 6132 ft 242 kts 330°
2026-04-26 21:33 2.66985 -60.90918 5874 ft 238 kts 331°
2026-04-26 21:33 2.68393 -60.91749 5641 ft 232 kts 331°
2026-04-26 21:34 2.69778 -60.92536 5409 ft 226 kts 338°
2026-04-26 21:34 2.71288 -60.92716 5127 ft 218 kts 15°
2026-04-26 21:34 2.72592 -60.92032 4906 ft 212 kts 43°
2026-04-26 21:34 2.73478 -60.90866 4684 ft 212 kts 62°
2026-04-26 21:35 2.74156 -60.89555 4443 ft 213 kts 64°
2026-04-26 21:35 2.74821 -60.88227 4188 ft 213 kts 64°
2026-04-26 21:35 2.75479 -60.86922 3961 ft 207 kts 64°
2026-04-26 21:35 2.76122 -60.85660 3730 ft 201 kts 63°
2026-04-26 21:36 2.76783 -60.84412 3290 ft 200 kts 63°
2026-04-26 21:36 2.77201 -60.83608 3117 ft 192 kts 63°
2026-04-26 21:36 2.77992 -60.82060 2785 ft 183 kts 63°
2026-04-26 21:36 2.78568 -60.80927 2560 ft 180 kts 63°
2026-04-26 21:37 2.79110 -60.79860 2320 ft 165 kts 63°
2026-04-26 21:37 2.79601 -60.78895 2145 ft 146 kts 63°
2026-04-26 21:37 2.80053 -60.78007 1937 ft 140 kts 62°
2026-04-26 21:37 2.80503 -60.77122 1767 ft 145 kts 62°
2026-04-26 21:38 2.80962 -60.76220 1574 ft 145 kts 62°
2026-04-26 21:38 2.81420 -60.75319 1417 ft 145 kts 62°
2026-04-26 21:38 2.81876 -60.74421 1241 ft 144 kts 62°
2026-04-26 21:38 2.82324 -60.73541 1053 ft 144 kts 63°
2026-04-26 21:39 2.82780 -60.72645 876 ft 146 kts 63°
2026-04-26 21:39 2.83242 -60.71735 674 ft 146 kts 63°
2026-04-26 21:39 2.83700 -60.70835 472 ft 143 kts 63°
2026-04-26 21:39 2.84149 -60.69966 305 ft 134 kts 63°
2026-04-26 21:40 2.84494 -60.69285 279 ft 57 kts 63°
2026-04-26 21:40 2.84530 -60.69215 277 ft 0 kts 62°